Location: Boston
(42.3580°N, 71.0600°W)
Time: 14:50:57
(UTC-05:00)

Tiangong 2 - Pass Details

Date: 13 October 2017
Orbit: 386 x 390 km, 42.8° (Epoch: 15 December)

Event Time Altitude Azimuth Distance (km) Brightness Sun altitude
Exits shadow 05:52:08 23° 272° (W) 897 2.3 -12.4°
Maximum altitude 05:54:01 81° 357° (N) 400 1.1 -12.0°
Drops below altitude 10° 05:57:15 10° 86° (E) 1,426 5.5 -11.5°
Sets 05:59:20 0° 87° (E) 2,283 7.2 -11.1°
